Location: Barrio Las Umbrías
(40.4173°N, 4.8685°W)
Time: 14:09:18
(UTC+00:00)

Cosmos 1500 - Pass Details

Date: 17 August 2022
Orbit: 490 x 508 km, 82.5° (Epoch: 28 September)

Event Time Altitude Azimuth Distance (km) Brightness Sun altitude
Exits shadow 21:12:17 73° 141° (SE) 522 2.9 -20.5°
Maximum altitude 21:12:31 78° 96° (E) 512 2.9 -20.5°
Drops below altitude 10° 21:16:15 10° 10° (N) 1,707 6.2 -21.1°
Sets 21:18:23 0° 9° (N) 2,599 7.2 -21.4°
